1497272400.39,23962,22.81,74128.5,11.95,4.33,4.23,0,*4C
1497272401.6,23963,22.81,74128.0,11.95,4.41,4.33,0,*49
1497272402.81,23964,22.81,74126.0,11.97,4.27,4.15,0,*48
1497272404.04,23965,22.81,74126.8,11.95,3.97,3.81,0,*4D
1497272405.27,23966,22.81,74128.0,11.95,4.19,3.97,0,*48
1497272406.48,23967,22.75,74124.5,11.95,4.19,4.07,0,*47
1497272407.68,23968,22.81,74130.0,11.93,4.31,4.19,0,*4B
1497272408.86,23969,22.81,74128.5,11.93,4.33,4.23,0,*41
1497272410.06,23970,22.81,74128.0,11.95,4.23,4.11,0,*4F
1497272411.27,23971,22.75,74126.5,11.95,4.33,4.23,0,*4E
1497272412.48,23972,22.81,74128.3,11.95,4.07,3.93,0,*46
1497272413.69,23973,22.75,74126.8,11.95,4.45,4.33,0,*4C
1497272414.9,23974,22.75,74126.8,11.93,4.05,3.85,0,*43
1497272416.08,23975,22.81,74128.3,11.93,4.07,3.93,0,*47
1497272417.29,23976,22.81,74126.8,11.95,4.07,3.85,0,*45
1497272418.49,23977,22.81,74128.8,11.93,3.97,3.81,0,*48
1497272419.72,23978,22.81,74130.3,11.93,3.71,3.53,0,*40
1497272420.92,23979,22.81,74130.5,11.91,3.93,3.81,0,*40
1497272422.15,23980,22.81,74128.0,11.91,4.01,3.89,0,*42
1497272423.35,23981,22.75,74126.8,11.91,4.19,4.15,0,*48
1497272424.53,23982,22.81,74126.8,11.89,4.37,4.27,0,*4F
1497272425.71,23983,22.81,74124.0,11.89,4.49,4.33,0,*42
1497272426.94,23984,22.75,74126.8,11.91,4.37,4.31,0,*47
1497272428.14,23985,22.81,74126.3,11.89,4.01,3.85,0,*42
1497272429.36,23986,22.81,74124.8,11.91,4.41,4.31,0,*44
1497272430.59,23987,22.81,74126.0,11.91,4.31,4.15,0,*44
1497272431.82,23988,22.81,74126.8,11.89,4.05,3.97,0,*48
1497272433.06,23989,22.81,74128.0,11.91,4.05,3.93,0,*44
1497272434.26,23990,22.81,74126.0,11.89,3.81,3.67,0,*45
1497272435.46,23991,22.75,74126.0,11.89,4.01,3.89,0,*4B
1497272436.66,23992,22.81,74126.0,11.89,3.89,3.67,0,*4F
1497272437.89,23993,22.81,74124.3,11.87,3.97,3.85,0,*43
1497272439.16,23994,22.81,74128.0,11.87,4.05,4.05,0,*47
1497272440.37,23995,22.75,74126.0,11.87,4.15,4.15,0,*46
1497272441.58,23996,22.81,74128.0,11.87,4.37,4.37,0,*45
1497272442.79,23997,22.81,74126.5,11.87,4.45,4.37,0,*41
1497272444.05,23998,22.75,74126.5,11.87,4.67,4.59,0,*46
1497272445.31,23999,22.81,74126.5,11.87,4.67,4.59,0,*47
1497272446.54,24000,22.81,74128.3,11.87,4.59,4.49,0,*45
1497272447.75,24001,22.81,74126.8,11.87,4.33,4.33,0,*45
1497272448.98,24002,22.81,74128.8,11.89,4.01,4.01,0,*48
1497272450.15,24003,22.75,74124.5,11.89,4.27,4.27,0,*49
1497272451.33,24004,22.81,74128.5,11.89,4.57,4.37,0,*48
1497272452.51,24005,22.81,74132.3,11.89,4.23,4.23,0,*4F
1497272453.69,24006,22.81,74130.3,11.89,4.23,4.15,0,*49
1497272454.9,24007,22.81,74126.3,11.87,4.33,4.37,0,*47
1497272456.11,24008,22.81,74128.3,11.87,4.57,4.57,0,*4C
1497272457.29,24009,22.81,74128.5,11.89,4.23,4.15,0,*46
1497272458.52,24010,22.81,74128.5,11.89,4.05,4.05,0,*4B
1497272459.72,24011,22.81,74128.8,11.89,3.89,3.79,0,*45
1497272460.95,24012,22.75,74126.5,11.89,3.75,3.67,0,*4A
1497272462.19,24013,22.81,74128.3,11.87,3.97,3.89,0,*49
1497272463.4,24014,22.81,74128.8,11.85,4.07,4.01,0,*45
1497272464.6,24015,22.81,74128.3,11.85,3.85,3.75,0,*4D
1497272465.78,24016,22.81,74128.5,11.85,3.63,3.63,0,*41
1497272466.98,24017,22.81,74130.8,11.81,3.55,3.49,0,*49
1497272468.22,24018,22.81,74128.5,11.81,3.67,3.67,0,*4B
1497272469.46,24019,22.75,74124.0,11.79,3.81,3.71,0,*42
1497272470.68,24020,22.75,74126.3,11.81,3.37,3.23,0,*45
1497272471.89,24021,22.81,74128.3,11.81,3.55,3.49,0,*4C
1497272473.12,24022,22.75,74124.0,11.79,3.89,3.79,0,*4A
1497272474.36,24023,22.81,74128.8,11.79,4.07,3.97,0,*4A
1497272475.58,24024,22.81,74128.0,11.79,3.93,3.93,0,*43
1497272476.78,24025,22.81,74132.0,11.75,4.23,4.23,0,*4E
1497272477.99,24026,22.75,74128.5,11.75,4.33,4.23,0,*4C
1497272479.26,24027,22.81,74130.3,11.79,4.05,4.05,0,*40
1497272480.47,24028,22.75,74126.8,11.75,4.27,4.27,0,*43
1497272481.7,24029,22.81,74130.3,11.79,4.59,4.49,0,*4F
1497272482.94,24030,22.81,74128.5,11.79,4.37,4.31,0,*40
1497272484.18,24031,22.81,74126.5,11.79,4.15,4.05,0,*46
1497272485.42,24032,22.81,74126.8,11.79,3.81,3.67,0,*4C
1497272486.68,24033,22.81,74130.5,11.75,4.05,4.01,0,*4D
1497272487.92,24034,22.81,74126.8,11.75,4.11,4.05,0,*4B
1497272489.16,24035,22.81,74130.0,11.73,4.31,4.31,0,*49
1497272490.36,24036,22.81,74124.0,11.75,4.27,4.11,0,*49
1497272491.55,24037,22.81,74126.8,11.73,4.19,4.07,0,*44
1497272492.73,24038,22.81,74124.3,11.73,4.23,4.11,0,*45
1497272493.94,24039,22.81,74128.5,11.73,4.07,3.97,0,*4B
1497272495.2,24040,22.75,74126.0,11.75,4.05,3.97,0,*41
1497272496.41,24041,22.81,74128.3,11.73,4.01,3.89,0,*4D
1497272497.62,24042,22.81,74130.3,11.73,4.01,3.89,0,*4E
1497272498.8,24043,22.81,74130.3,11.73,4.33,4.23,0,*49
1497272499.98,24044,22.81,74128.8,11.73,4.23,4.19,0,*46
1497272501.19,24045,22.81,74128.5,11.73,4.45,4.31,0,*4D
1497272502.4,24046,22.81,74128.5,11.73,4.31,4.19,0,*47
1497272503.61,24047,22.81,74128.3,11.73,3.81,3.71,0,*43
1497272504.84,24048,22.81,74130.3,11.71,3.97,3.85,0,*42
1497272506.05,24049,22.81,74128.0,11.71,4.37,4.27,0,*41
1497272507.29,24050,22.81,74128.5,11.71,4.41,4.31,0,*4F
1497272508.51,24051,22.81,74128.8,11.71,4.53,4.41,0,*4A
1497272509.72,24052,22.81,74128.5,11.71,4.57,4.57,0,*4A
1497272510.94,24053,22.81,74126.0,11.71,4.41,4.37,0,*4A
1497272512.18,24054,22.81,74128.0,11.71,4.15,4.05,0,*4D
1497272513.41,24055,22.81,74124.0,11.69,3.79,3.67,0,*4B
1497272514.64,24056,22.75,74124.0,11.71,3.97,3.85,0,*4D
1497272515.86,24057,22.81,74130.5,11.69,4.15,4.05,0,*47
1497272517.04,24058,22.81,74128.5,11.69,4.27,4.19,0,*44
1497272518.25,24059,22.81,74128.8,11.69,4.07,3.97,0,*46
1497272519.46,24060,22.81,74128.3,11.69,4.31,4.19,0,*48
1497272520.65,24061,22.81,74128.3,11.69,4.41,4.41,0,*43
1497272521.86,24062,22.81,74128.3,11.69,4.31,4.19,0,*4A
1497272523.05,24063,22.81,74128.0,11.69,4.41,4.37,0,*40
1497272524.24,24064,22.81,74128.8,11.69,4.07,4.07,0,*46
1497272525.42,24065,22.81,74130.3,11.69,4.19,4.15,0,*4B
1497272526.64,24066,22.81,74126.3,11.69,4.37,4.31,0,*42
1497272527.85,24067,22.81,74124.3,11.69,4.37,4.31,0,*43
1497272529.04,24068,22.81,74130.0,11.69,4.27,4.15,0,*4B
1497272530.22,24069,22.81,74128.5,11.69,4.27,4.19,0,*46
1497272531.48,24070,22.81,74124.3,11.67,3.79,3.67,0,*42
1497272532.69,24071,22.81,74130.8,11.65,3.37,3.25,0,*4D
1497272533.9,24072,22.81,74130.3,11.65,3.41,3.25,0,*4F
1497272535.11,24073,22.81,74128.5,11.65,3.41,3.25,0,*4E
1497272536.34,24074,22.81,74126.8,11.63,3.19,3.07,0,*42
1497272537.59,24075,22.81,74130.0,11.61,3.37,3.23,0,*4B
1497272538.83,24076,22.81,74130.5,11.61,3.37,3.25,0,*4E
1497272540.06,24077,22.81,74126.8,11.61,3.71,3.55,0,*4A
1497272541.29,24078,22.81,74124.5,11.59,3.45,3.33,0,*49
1497272542.56,24079,22.81,74128.3,11.57,3.07,2.89,0,*40
1497272543.76,24080,22.81,74130.3,11.59,3.25,3.11,0,*48
1497272544.99,24081,22.81,74130.3,11.57,3.23,2.99,0,*40
1497272546.25,24082,22.81,74128.3,11.53,3.19,3.07,0,*48
1497272547.46,24083,22.81,74128.8,11.51,3.25,3.07,0,*44
1497272548.67,24084,22.81,74128.5,11.51,3.07,2.95,0,*49
1497272549.9,24085,22.81,74132.5,11.49,3.55,3.37,0,*4F
1497272551.16,24086,22.81,74128.8,11.49,3.45,3.41,0,*4C
1497272552.36,24087,22.81,74130.0,11.47,3.59,3.53,0,*4D
1497272553.61,24088,22.81,74126.8,11.47,3.45,3.41,0,*4C
1497272554.82,24089,22.81,74128.8,11.47,3.07,2.95,0,*43
1497272556.06,24090,22.81,74130.5,11.47,3.45,3.45,0,*41
1497272557.27,24091,22.81,74130.0,11.47,3.55,3.45,0,*41
1497272558.53,24092,22.81,74130.5,11.45,3.71,3.67,0,*46
1497272559.73,24093,22.81,74128.8,11.45,3.59,3.55,0,*4C
1497272560.96,24094,22.81,74128.8,11.43,3.53,3.49,0,*4A
1497272562.18,24095,22.81,74130.5,11.43,3.75,3.63,0,*47
1497272563.41,24096,22.81,74130.5,11.43,3.79,3.75,0,*4F
1497272564.62,24097,22.81,74128.8,11.43,3.85,3.67,0,*4E
1497272565.85,24098,22.81,74128.3,11.43,4.01,4.01,0,*4D
1497272567.09,24099,22.81,74130.0,11.43,3.79,3.75,0,*40
1497272568.3,24100,22.81,74128.5,11.43,3.97,3.89,0,*42
1497272569.51,24101,22.81,74128.0,11.43,3.85,3.79,0,*4F
1497272570.71,24102,22.81,74130.8,11.43,3.55,3.53,0,*49
1497272571.94,24103,22.81,74126.8,11.41,3.71,3.59,0,*46
1497272573.17,24104,22.81,74128.0,11.41,3.63,3.53,0,*48
1497272574.37,24105,22.81,74126.8,11.41,3.63,3.59,0,*43
1497272575.56,24106,22.81,74130.0,11.39,3.59,3.63,0,*4F
1497272576.75,24107,22.81,74128.0,11.39,3.93,3.85,0,*40
1497272578.01,24108,22.81,74130.3,11.41,4.05,4.05,0,*47
1497272579.25,24109,22.81,74124.5,11.41,4.07,4.05,0,*44
1497272580.46,24110,22.81,74128.5,11.41,4.07,4.07,0,*4E
1497272581.68,24111,22.81,74126.0,11.39,4.15,4.05,0,*41
1497272582.89,24112,22.81,74124.8,11.41,4.15,4.07,0,*4F
1497272584.16,24113,22.81,74124.3,11.41,4.31,4.31,0,*4D
1497272585.35,24114,22.81,74124.8,11.39,4.15,4.23,0,*40
1497272586.55,24115,22.81,74126.3,11.41,4.19,4.19,0,*4B
1497272587.76,24116,22.81,74128.8,11.41,4.53,4.45,0,*4F
1497272588.97,24117,22.81,74124.8,11.41,4.23,4.23,0,*49
1497272590.15,24118,22.75,74126.8,11.43,4.27,4.23,0,*40
1497272591.42,24119,22.81,74126.8,11.41,4.05,4.05,0,*47
1497272592.68,24120,22.81,74128.5,11.41,4.31,4.31,0,*4D
1497272593.92,24121,22.81,74130.3,11.43,4.59,4.59,0,*4E
1497272595.1,24122,22.81,74128.5,11.43,4.57,4.49,0,*42
1497272596.3,24123,22.81,74128.5,11.45,4.53,4.49,0,*41
1497272597.51,24124,22.81,74128.8,11.43,4.57,4.59,0,*45
1497272598.7,24125,22.81,74128.5,11.43,4.37,4.45,0,*4F
1497272599.89,24126,22.81,74130.0,11.43,4.57,4.57,0,*49
1497272601.1,24127,22.81,74128.8,11.45,4.41,4.37,0,*4F
1497272602.28,24128,22.81,74128.3,11.43,4.45,4.45,0,*47
1497272603.52,24129,22.81,74130.5,11.43,4.67,4.67,0,*46
1497272604.7,24130,22.81,74130.8,11.43,4.45,4.45,0,*4E
1497272605.92,24131,22.81,74128.0,11.45,4.37,4.49,0,*40
1497272607.16,24132,22.81,74130.3,11.43,4.71,4.79,0,*44
1497272608.43,24133,22.81,74130.3,11.45,4.71,4.75,0,*4F
1497272609.64,24134,22.81,74128.5,11.45,4.81,4.85,0,*48
1497272610.88,24135,22.81,74128.0,11.47,4.59,4.59,0,*4F
1497272612.09,24136,22.81,74128.0,11.47,4.85,4.75,0,*43
1497272613.27,24137,22.81,74128.3,11.47,4.85,4.81,0,*49
1497272614.53,24138,22.81,74128.0,11.49,4.97,4.97,0,*4C
1497272615.74,24139,22.81,74130.5,11.49,4.89,4.89,0,*4D
1497272616.98,24140,22.81,74130.3,11.47,4.97,4.97,0,*4D
1497272618.24,24141,22.81,74130.8,11.49,5.01,5.01,0,*42
1497272619.49,24142,22.81,74128.5,11.51,5.01,4.93,0,*42
1497272620.7,24143,22.81,74126.8,11.51,5.07,5.01,0,*4F
1497272621.97,24144,22.81,74130.0,11.53,5.05,5.01,0,*48
1497272623.21,24145,22.81,74130.5,11.51,5.01,4.93,0,*45
1497272624.45,24146,22.81,74130.5,11.53,4.93,4.89,0,*45
1497272625.71,24147,22.81,74128.5,11.53,4.93,4.93,0,*4F
1497272626.98,24148,22.81,74130.8,11.53,5.01,5.01,0,*40
1497272628.21,24149,22.81,74132.0,11.53,4.93,4.81,0,*42
1497272629.42,24150,22.81,74130.0,11.57,5.23,5.11,0,*4C
1497272630.63,24151,22.81,74130.8,11.57,5.29,5.19,0,*4F
1497272631.83,24152,22.81,74128.5,11.57,5.29,5.11,0,*44
1497272633.09,24153,22.81,74130.3,11.57,4.97,4.97,0,*4E
1497272634.28,24154,22.81,74128.3,11.59,4.89,4.85,0,*4B
1497272635.51,24155,22.81,74128.5,11.57,4.97,4.85,0,*4B
1497272636.69,24156,22.81,74130.3,11.59,5.15,5.15,0,*45
1497272637.88,24157,22.75,74124.3,11.59,5.11,5.07,0,*43
1497272639.09,24158,22.81,74130.3,11.59,5.11,5.01,0,*4A
1497272640.31,24159,22.81,74132.5,11.63,4.81,4.71,0,*4C
1497272641.54,24160,22.81,74132.0,11.61,4.85,4.79,0,*48
1497272642.78,24161,22.81,74130.3,11.61,4.85,4.75,0,*45
1497272643.99,24162,22.81,74132.3,11.59,5.01,4.89,0,*43
1497272645.22,24163,22.81,74130.5,11.59,4.75,4.67,0,*40
1497272646.45,24164,22.81,74124.5,11.59,4.63,4.63,0,*44
1497272647.72,24165,22.81,74130.8,11.61,4.97,4.97,0,*4E
1497272648.95,24166,22.81,74128.0,11.61,5.07,4.97,0,*45
1497272650.16,24167,22.81,74130.8,11.63,5.15,5.05,0,*4F
1497272651.4,24168,22.81,74130.3,11.61,5.07,4.97,0,*4B
1497272652.61,24169,22.81,74128.0,11.65,5.19,5.05,0,*4B
1497272653.82,24170,22.81,74126.3,11.63,5.15,5.01,0,*4D
1497272655.07,24171,22.81,74128.5,11.63,5.05,4.93,0,*47
1497272656.28,24172,22.81,74128.8,11.63,5.11,4.93,0,*41
1497272657.5,24173,22.75,74126.0,11.63,5.11,5.01,0,*4A
1497272658.72,24174,22.81,74126.8,11.63,5.11,5.01,0,*4D
1497272659.93,24175,22.81,74126.3,11.63,5.11,5.01,0,*4C
1497272661.14,24176,22.81,74124.3,11.65,4.67,4.57,0,*4B
1497272662.35,24177,22.81,74124.5,11.65,5.01,4.89,0,*48
1497272663.56,24178,22.81,74130.5,11.65,4.81,4.71,0,*49
1497272664.8,24179,22.81,74126.3,11.65,4.93,4.71,0,*4B
1497272665.98,24180,22.81,74126.3,11.65,4.49,4.49,0,*41
1497272667.22,24181,22.81,74124.0,11.63,4.71,4.59,0,*4C
1497272668.4,24182,22.81,74124.8,11.63,4.89,4.81,0,*4D
1497272669.62,24183,22.81,74124.3,11.65,4.71,4.57,0,*46
1497272670.85,24184,22.81,74126.3,11.65,4.71,4.59,0,*4F
1497272672.04,24185,22.81,74128.8,11.65,4.41,4.33,0,*41
1497272673.27,24186,22.81,74128.3,11.63,4.67,4.59,0,*4C
1497272674.48,24187,22.81,74126.0,11.63,4.93,4.89,0,*4B
1497272675.7,24188,22.81,74126.8,11.63,5.11,5.01,0,*4E
1497272676.88,24189,22.75,74120.8,11.63,4.89,4.81,0,*46
1497272678.09,24190,22.81,74128.5,11.65,4.89,4.79,0,*4F
1497272679.33,24191,22.81,74128.0,11.65,5.01,4.93,0,*4B
1497272680.57,24192,22.81,74130.5,11.65,4.71,4.67,0,*45
1497272681.78,24193,22.81,74126.3,11.65,4.93,4.89,0,*48
1497272682.98,24194,22.81,74128.3,11.65,4.93,4.81,0,*47
1497272684.2,24195,22.81,74130.5,11.65,4.89,4.71,0,*42
1497272685.39,24196,22.81,74130.3,11.65,4.07,3.89,0,*47
1497272686.59,24197,22.81,74128.5,11.65,4.07,3.97,0,*49
1497272687.81,24198,22.81,74130.3,11.65,4.71,4.57,0,*4C
1497272689.05,24199,22.81,74128.5,11.63,4.79,4.67,0,*40
1497272690.28,24200,22.81,74128.8,11.63,4.79,4.67,0,*43
1497272691.49,24201,22.81,74128.5,11.63,5.01,4.89,0,*4C
1497272692.7,24202,22.81,74124.3,11.63,4.23,4.01,0,*4E
1497272693.96,24203,22.81,74124.0,11.61,3.75,3.67,0,*4E
1497272695.2,24204,22.81,74126.3,11.61,3.93,3.71,0,*46
1497272696.43,24205,22.81,74126.8,11.61,3.85,3.71,0,*40
1497272697.64,24206,22.81,74130.5,11.59,3.93,3.71,0,*4F
1497272698.87,24207,22.81,74128.8,11.57,3.79,3.55,0,*42
1497272700.08,24208,22.81,74126.5,11.57,4.11,3.93,0,*4E
1497272701.32,24209,22.81,74122.8,11.57,3.89,3.71,0,*45
1497272702.53,24210,22.81,74126.3,11.57,4.11,3.89,0,*4C
1497272703.76,24211,22.81,74124.8,11.53,3.97,3.85,0,*4C
1497272704.99,24212,22.81,74126.0,11.53,4.31,4.19,0,*46
1497272706.18,24213,22.81,74124.0,11.51,4.37,4.23,0,*4A
1497272707.36,24214,22.81,74124.5,11.51,4.33,4.19,0,*40
1497272708.57,24215,22.81,74124.0,11.51,4.07,4.01,0,*4F
1497272709.75,24216,22.81,74124.8,11.51,4.45,4.33,0,*4B
1497272710.96,24217,22.81,74126.5,11.53,4.57,4.33,0,*4B
1497272712.2,24218,22.81,74124.5,11.53,4.37,4.31,0,*40
1497272713.44,24219,22.81,74122.5,11.51,4.71,4.59,0,*4F
1497272714.68,24220,22.81,74124.8,11.53,4.81,4.79,0,*4A
1497272715.92,24221,22.81,74126.0,11.51,4.93,4.79,0,*4A
1497272717.14,24222,22.81,74124.0,11.51,4.71,4.57,0,*49
1497272718.35,24223,22.81,74124.5,11.51,4.79,4.57,0,*40
1497272719.58,24224,22.81,74126.3,11.53,4.67,4.49,0,*45
1497272720.79,24225,22.81,74128.0,11.51,4.81,4.71,0,*45
1497272722.05,24226,22.81,74128.0,11.57,4.93,4.75,0,*47
1497272723.29,24227,22.81,74126.0,11.51,4.67,4.59,0,*45
1497272724.52,24228,22.81,74128.0,11.57,5.07,5.05,0,*43
1497272725.78,24229,22.81,74126.8,11.53,5.05,4.93,0,*4A
1497272727.01,24230,22.81,74124.8,11.57,5.07,4.97,0,*40
1497272728.25,24231,22.81,74128.5,11.53,5.07,5.01,0,*4B
1497272729.52,24232,22.81,74126.8,11.53,4.93,4.79,0,*4A
1497272730.78,24233,22.81,74124.0,11.57,5.05,4.93,0,*45
1497272732.04,24234,22.81,74124.5,11.53,5.05,4.93,0,*46
1497272733.28,24235,22.81,74128.0,11.53,5.01,4.89,0,*48
1497272734.54,24236,22.81,74126.3,11.53,4.93,4.71,0,*46
1497272735.75,24237,22.81,74124.0,11.57,4.53,4.37,0,*4D
1497272736.97,24238,22.81,74126.8,11.57,4.53,4.37,0,*42
1497272738.2,24239,22.81,74130.3,11.57,4.93,4.81,0,*42
1497272739.43,24240,22.81,74122.3,11.53,4.67,4.57,0,*48
1497272740.67,24241,22.81,74126.8,11.57,4.59,4.41,0,*47
1497272741.91,24242,22.81,74126.8,11.59,5.05,4.93,0,*4D
1497272743.14,24243,22.81,74124.8,11.57,5.07,4.97,0,*44
1497272744.37,24244,22.81,74128.3,11.53,5.07,5.05,0,*4D
1497272745.57,24245,22.81,74126.8,11.53,5.29,5.37,0,*41
1497272746.78,24246,22.81,74126.8,11.57,5.29,5.23,0,*43
1497272748.02,24247,22.81,74128.5,11.53,5.05,5.07,0,*4E
1497272749.21,24248,22.81,74126.3,11.51,5.15,5.07,0,*42
1497272750.47,24249,22.81,74126.3,11.57,5.05,5.05,0,*46
1497272751.68,24250,22.81,74126.8,11.59,5.27,5.23,0,*44
1497272752.88,24251,22.81,74124.8,11.57,5.33,5.29,0,*44
1497272754.09,24252,22.81,74126.5,11.57,5.23,5.07,0,*4A
1497272755.27,24253,22.81,74124.5,11.59,5.15,5.15,0,*43
1497272756.46,24254,22.81,74126.5,11.59,5.23,5.23,0,*44
1497272757.65,24255,22.81,74126.3,11.59,5.23,5.15,0,*40
1497272758.83,24256,22.81,74126.8,11.59,5.11,5.07,0,*41
1497272760.02,24257,22.81,74124.5,11.59,5.07,5.07,0,*47
1497272761.21,24258,22.81,74124.8,11.59,5.11,5.11,0,*48
1497272762.39,24259,22.81,74124.5,11.59,5.15,5.15,0,*49
1497272763.6,24260,22.81,74128.0,11.57,5.07,5.11,0,*4A
1497272764.78,24261,22.81,74126.3,11.59,5.07,5.11,0,*45
1497272766.0,24262,22.81,74126.8,11.59,5.11,5.01,0,*40
1497272767.2,24263,22.81,74124.3,11.61,4.85,4.85,0,*4B
1497272768.42,24264,22.81,74126.5,11.59,5.07,5.01,0,*41
1497272769.6,24265,22.81,74122.8,11.59,5.07,5.11,0,*41
1497272770.84,24266,22.81,74124.8,11.59,5.01,4.97,0,*4B
1497272772.05,24267,22.81,74126.8,11.59,4.97,4.89,0,*4B
1497272773.23,24268,22.81,74126.0,11.59,5.07,5.07,0,*4B
1497272774.42,24269,22.81,74126.8,11.59,5.11,5.07,0,*4D
1497272775.61,24270,22.81,74128.0,11.59,5.23,5.23,0,*42
1497272776.8,24271,22.81,74124.8,11.59,5.07,5.07,0,*43
1497272778.04,24272,22.81,74128.5,11.59,5.01,5.01,0,*40
1497272779.28,24273,22.81,74124.8,11.61,5.07,5.01,0,*4C
1497272780.51,24274,22.81,74126.3,11.61,5.01,4.85,0,*40
1497272781.75,24275,22.81,74128.5,11.59,4.67,4.67,0,*47
1497272782.99,24276,22.81,74126.8,11.59,4.75,4.75,0,*44
1497272784.23,24277,22.81,74126.3,11.59,5.01,5.01,0,*45
1497272785.41,24278,22.81,74124.8,11.59,5.07,5.07,0,*4A
1497272786.63,24279,22.81,74126.3,11.61,5.15,5.23,0,*45
1497272787.86,24280,22.81,74126.0,11.61,5.07,4.97,0,*4E
1497272789.1,24281,22.81,74126.8,11.59,5.01,4.97,0,*42
1497272790.34,24282,22.81,74124.5,11.61,5.07,5.01,0,*42
1497272791.55,24283,22.81,74126.3,11.61,5.07,5.07,0,*45
1497272792.79,24284,22.81,74126.8,11.61,4.89,4.97,0,*4D
1497272794.0,24285,22.81,74124.3,11.61,5.07,5.07,0,*43
1497272795.19,24286,22.81,74126.8,11.59,5.07,5.07,0,*4B
1497272796.38,24287,22.81,74128.8,11.59,5.11,5.11,0,*4A
1497272797.56,24288,22.81,74130.5,11.59,5.15,5.23,0,*40
1497272798.8,24289,22.81,74130.3,11.59,4.97,4.97,0,*44
1497272800.04,24290,22.81,74130.5,11.59,4.97,4.97,0,*4C
1497272801.3,24291,22.81,74124.5,11.57,4.97,5.05,0,*49
1497272802.51,24292,22.81,74126.3,11.59,5.01,5.07,0,*48
1497272803.73,24293,22.81,74124.0,11.59,5.01,5.15,0,*4A
1497272804.91,24294,22.81,74126.5,11.59,5.07,5.11,0,*4F
1497272806.13,24295,22.81,74128.0,11.59,5.01,5.07,0,*4F
1497272807.31,24296,22.81,74124.0,11.59,5.07,5.11,0,*4D
1497272808.55,24297,22.81,74126.5,11.59,4.97,5.01,0,*45
1497272809.79,24298,22.81,74128.5,11.59,4.75,4.97,0,*48
1497272811.02,24299,22.81,74128.8,11.57,4.37,4.59,0,*43
1497272812.26,24300,22.81,74128.3,11.57,4.53,4.75,0,*4E
1497272813.47,24301,22.81,74130.3,11.59,4.41,4.63,0,*45
1497272814.67,24302,22.81,74126.8,11.59,4.67,4.89,0,*46
1497272815.92,24303,22.81,74128.5,11.53,4.89,5.01,0,*4C
1497272817.15,24304,22.81,74130.5,11.53,4.49,4.71,0,*41
1497272818.39,24305,22.81,74128.0,11.53,4.57,4.67,0,*48
1497272819.62,24306,22.81,74130.5,11.53,4.71,4.81,0,*47
1497272820.89,24307,22.81,74128.3,11.53,4.93,4.93,0,*49
1497272822.13,24308,22.81,74130.5,11.53,5.01,5.07,0,*40
1497272823.4,24309,22.81,74128.8,11.53,4.93,4.93,0,*47
1497272824.62,24310,22.81,74126.5,11.51,4.89,5.01,0,*4C
1497272825.83,24311,22.81,74130.3,11.51,5.01,5.07,0,*4A
1497272827.08,24312,22.81,74130.5,11.51,4.93,5.01,0,*45
1497272828.32,24313,22.81,74130.5,11.53,5.01,5.19,0,*45
1497272829.5,24314,22.81,74130.5,11.51,5.07,5.37,0,*4A
1497272830.74,24315,22.81,74126.5,11.53,5.05,5.15,0,*4B
1497272831.96,24316,22.81,74128.0,11.51,5.01,5.15,0,*4E
1497272833.2,24317,22.81,74128.5,11.53,5.01,5.19,0,*41
1497272834.38,24318,22.81,74128.5,11.51,5.15,5.29,0,*4A
1497272835.58,24319,22.81,74126.3,11.53,5.15,5.37,0,*46
1497272836.8,24320,22.81,74124.5,11.51,4.71,4.89,0,*49
1497272838.04,24321,22.81,74126.8,11.53,4.81,5.01,0,*44
1497272839.28,24322,22.81,74126.0,11.51,4.93,4.93,0,*4C
1497272840.52,24323,22.81,74126.5,11.51,4.93,5.01,0,*47
1497272841.77,24324,22.81,74124.0,11.51,4.59,4.79,0,*48
1497272842.98,24325,22.81,74122.8,11.51,4.57,4.67,0,*48
1497272844.18,24326,22.81,74124.0,11.51,4.49,4.59,0,*49
1497272845.44,24327,22.81,74124.3,11.49,4.67,4.79,0,*4F
1497272846.64,24328,22.81,74126.8,11.49,4.45,4.53,0,*48
1497272847.88,24329,22.81,74128.3,11.47,4.59,4.63,0,*49
1497272849.14,24330,22.81,74124.0,11.49,4.63,4.59,0,*4F
1497272850.33,24331,22.81,74126.8,11.47,4.53,4.53,0,*49
1497272851.54,24332,22.81,74124.5,11.47,4.31,4.37,0,*4C
1497272852.78,24333,22.81,74124.5,11.45,4.53,4.63,0,*4A
1497272853.99,24334,22.81,74124.8,11.45,4.81,4.81,0,*4E
1497272855.26,24335,22.81,74128.5,11.45,4.71,4.75,0,*4B
1497272856.49,24336,22.81,74124.5,11.45,4.63,4.53,0,*4F
1497272857.73,24337,22.81,74128.0,11.43,4.59,4.67,0,*46
1497272858.97,24338,22.81,74126.8,11.43,4.63,4.59,0,*4D
1497272860.15,24339,22.81,74126.8,11.43,4.27,4.27,0,*45
1497272861.39,24340,22.81,74128.3,11.43,4.59,4.59,0,*4B
1497272862.6,24341,22.81,74128.3,11.43,4.89,4.79,0,*45
1497272863.84,24342,22.81,74128.0,11.43,4.79,4.67,0,*46
1497272865.03,24343,22.81,74130.3,11.39,4.57,4.53,0,*41
1497272866.22,24344,22.81,74128.3,11.39,4.45,4.41,0,*46
1497272867.41,24345,22.81,74128.3,11.39,4.53,4.41,0,*40
1497272868.67,24346,22.81,74130.5,11.41,4.63,4.63,0,*4F
1497272869.91,24347,22.81,74128.0,11.39,4.75,4.63,0,*46
1497272871.13,24348,22.81,74130.5,11.39,4.67,4.57,0,*4D
1497272872.37,24349,22.81,74130.5,11.39,4.79,4.67,0,*40
1497272873.61,24350,22.81,74128.8,11.41,5.05,4.85,0,*41
1497272874.82,24351,22.81,74130.0,11.39,5.15,5.05,0,*47
1497272876.04,24352,22.81,74130.8,11.39,5.11,5.01,0,*44
1497272877.29,24353,22.81,74126.5,11.39,5.01,5.01,0,*44
1497272878.56,24354,22.81,74128.0,11.41,5.01,4.93,0,*46
1497272879.75,24355,22.81,74130.3,11.39,4.89,4.85,0,*4E
1497272881.0,24356,22.81,74128.5,11.39,5.01,4.93,0,*4B
1497272882.24,24357,22.81,74126.8,11.39,5.01,4.93,0,*4A
1497272883.44,24358,22.81,74124.3,11.39,5.11,5.11,0,*4F
1497272884.63,24359,22.81,74130.0,11.39,5.15,5.15,0,*4E
1497272885.84,24360,22.81,74124.5,11.39,5.27,5.15,0,*45
1497272887.07,24361,22.81,74126.8,11.41,5.05,4.89,0,*4F
1497272888.32,24362,22.81,74130.3,11.39,5.05,5.01,0,*42
1497272889.53,24363,22.81,74126.8,11.39,5.15,5.05,0,*46
1497272890.75,24364,22.81,74126.3,11.39,5.11,5.01,0,*41
1497272891.97,24365,22.81,74126.3,11.39,5.11,5.01,0,*40
1497272893.24,24366,22.81,74126.8,11.41,5.01,5.01,0,*4D
1497272894.48,24367,22.81,74126.3,11.41,5.01,4.89,0,*4D
1497272895.72,24368,22.81,74124.8,11.41,5.11,4.93,0,*48
1497272896.96,24369,22.81,74126.8,11.41,5.11,5.01,0,*43
1497272898.22,24370,22.81,74128.0,11.41,4.93,4.79,0,*4E
1497272899.46,24371,22.81,74128.8,11.39,4.93,4.79,0,*40
1497272900.7,24372,22.81,74130.3,11.39,4.79,4.67,0,*48
1497272901.94,24373,22.81,74126.8,11.39,4.79,4.67,0,*49
1497272903.19,24374,22.81,74124.5,11.39,5.01,4.75,0,*43
1497272904.44,24375,22.81,74128.0,11.39,5.01,4.79,0,*4E
1497272905.66,24376,22.81,74128.8,11.39,4.89,4.75,0,*40
1497272906.88,24377,22.81,74126.3,11.39,5.01,4.85,0,*4F
1497272908.09,24378,22.81,74128.0,11.39,5.15,4.93,0,*42
1497272909.34,24379,22.81,74130.0,11.39,5.01,4.79,0,*42
1497272910.58,24380,22.81,74128.0,11.39,4.79,4.63,0,*41
1497272911.79,24381,22.81,74134.8,11.39,4.85,4.67,0,*47
1497272913.04,24382,22.81,74134.0,11.37,4.63,4.41,0,*46
1497272914.22,24383,22.81,74128.8,11.35,4.41,4.15,0,*44
1497272915.44,24384,22.81,74128.0,11.35,4.59,4.41,0,*4B
1497272916.66,24385,22.81,74128.8,11.35,4.75,4.53,0,*47
1497272917.92,24386,22.81,74128.0,11.37,4.75,4.59,0,*4C
1497272919.11,24387,22.81,74130.8,11.35,4.81,4.53,0,*4E
1497272920.33,24388,22.81,74128.5,11.35,4.89,4.71,0,*49
1497272921.57,24389,22.81,74130.0,11.35,4.97,4.75,0,*43
1497272922.79,24390,22.81,74134.5,11.35,4.75,4.41,0,*40